Location: Moscow
(38.8570°N, 84.2291°W)
Time: 21:53:50
(UTC+00:00)

DIWATA 2B (PO-101) - Visible Passes

Search period start: 12 March 2026 00:00
Search period end: 22 March 2026 00:00
Orbit: 559 x 575 km, 98.1° (Epoch: 12 March)

Date Brightness Start Highest point End Pass type
(mag) Time Alt. Az. Time Alt. Az. Time Alt. Az.
12 Mar ? 00:19:31 10° N 00:23:30 75° WNW 00:27:29 10° SSW visible
12 Mar ? 11:05:14 10° SSE 11:09:11 57° ENE 11:13:09 10° N visible
13 Mar ? 00:20:25 10° N 00:24:25 74° WNW 00:28:23 10° SSW visible
13 Mar ? 11:06:08 10° SSE 11:10:05 59° ENE 11:14:03 10° N visible
14 Mar ? 00:21:19 10° N 00:25:18 72° WNW 00:29:18 10° SSW visible
14 Mar ? 11:07:01 10° SSE 11:10:59 60° ENE 11:14:57 10° N visible
15 Mar ? 00:22:13 10° N 00:26:13 71° WNW 00:30:11 10° SSW visible
15 Mar ? 11:07:54 10° SSE 11:11:53 61° ENE 11:15:51 10° N visible
16 Mar ? 00:23:07 10° N 00:27:06 69° WNW 00:31:05 10° SSW visible
16 Mar ? 11:08:48 10° SSE 11:12:46 62° ENE 11:16:45 10° N visible
17 Mar ? 00:24:01 10° N 00:28:00 68° WNW 00:31:58 10° SSW visible
17 Mar ? 11:09:41 10° SSE 11:13:40 63° ENE 11:17:39 10° N visible
18 Mar ? 00:24:54 10° N 00:28:53 66° WNW 00:32:52 10° SSW visible
18 Mar ? 11:10:35 10° SSE 11:14:33 65° ENE 11:18:33 10° N visible
19 Mar ? 00:25:48 10° N 00:29:47 65° WNW 00:33:45 10° SSW visible
19 Mar ? 11:11:28 10° SSE 11:15:27 66° ENE 11:19:27 10° N visible
20 Mar ? 00:26:42 10° N 00:30:40 64° WNW 00:34:37 10° SSW visible
21 Mar ? 00:27:35 10° N 00:31:33 63° WNW 00:35:31 10° SSW visible
